Location: Peterborough
(44.3091°N, 78.3197°W)
Time: 01:44:32
(UTC-04:00)

S-56A Canister/Altair - Pass Details

Date: 27 March 2023
Orbit: 639 x 2492 km, 38.9° (Epoch: 02 June)

Event Time Altitude Azimuth Distance (km) Brightness Sun altitude
Rises 01:30:00 0° 284° (WNW) 5,981 12.2 -43.1°
Reaches altitude 10° 01:34:06 10° 277° (W) 5,081 11.7 -43.1°
Enters shadow 01:39:31 25° 263° (W) 4,039 11.0 -43.0°
